Santiago, Spain

11:48 AM CET on February 22, 2017 (GMT +0100)
Santiago

Weather History for LEST - December, 2012

Change the Weather History Date:

Saturday, December 22, 2012

  Actual Average Record
Temperature  
Mean Temperature 55 °F -  
Max Temperature 57 °F 50 °F 66 °F (2008)
Min Temperature 53 °F 38 °F 24 °F (2005)
Degree Days  
Heating Degree Days 10    
Growing Degree Days 5 (Base 50)    
Moisture  
Dew Point 53 °F    
Average Humidity 93    
Maximum Humidity 100    
Minimum Humidity 82    
Precipitation  
Precipitation 0.00 in - - ()
Sea Level Pressure  
Sea Level Pressure 30.18 in    
Wind  
Wind Speed 11 mph ()    
Max Wind Speed 16 mph    
Max Gust Speed 30 mph    
Visibility 5.7 miles    
Events      
Averages and records for this station are not official NWS values.
T = Trace of Precipitation, MM = Missing Value Source: Averaged Metar Reports

Daily Weather History Graph

Daily Weather History Graph

Search for Another Location

Airport or City:

Trip Planner

Search our weather history database for the weather conditions in past years. The results will help you decide how hot, cold, wet, or windy it might be!

Date:

Astronomy

Dec. 22, 2012 Rise Set
Actual Time 9:02 AM CET 6:03 PM CET
Civil Twilight 8:29 AM CET 6:35 PM CET
Nautical Twilight 7:53 AM CET 7:11 PM CET
Astronomical Twilight 7:19 AM CET 7:45 PM CET
Moon 2:17 PM CET 3:29 AM CET
Length of Visible Light 10h 05m
Length of Day
9h 00m
Waxing Gibbous, 71% of the Moon is Illuminated
Dec 22
Waxing Gibbous
Dec 28
Full
Jan 5
Last Quarter
Jan 11
New
Jan 19
First Quarter

Hourly Weather History & Observations

Time (CET) Temp. Dew Point Humidity Pressure Visibility Wind Dir Wind Speed Gust Speed Precip Events Conditions
12:00 AM 55.4 °F 55.4 °F 100% 30.21 in 2.8 mi SSW 10.4 mph - N/A   Drizzle
12:30 AM 55.4 °F 53.6 °F 94% 30.21 in 2.8 mi SW 11.5 mph - N/A   Light Drizzle
1:00 AM 55.4 °F 53.6 °F 94% 30.24 in 4.3 mi SSW 10.4 mph - N/A   Overcast
1:30 AM 55.4 °F 53.6 °F 94% 30.21 in 4.3 mi SSW 9.2 mph - N/A   Overcast
2:00 AM 55.4 °F 53.6 °F 94% 30.21 in 5.6 mi SSW 10.4 mph - N/A   Mostly Cloudy
2:30 AM 55.4 °F 53.6 °F 94% 30.18 in 5.6 mi South 10.4 mph - N/A   Mostly Cloudy
3:00 AM 55.4 °F 53.6 °F 94% 30.18 in 5.6 mi SSW 11.5 mph - N/A   Mostly Cloudy
3:30 AM 53.6 °F 53.6 °F 100% 30.18 in 6.2 mi South 8.1 mph - N/A   Mostly Cloudy
4:00 AM 53.6 °F 53.6 °F 100% 30.18 in 6.2 mi South 11.5 mph - N/A   Mostly Cloudy
4:30 AM 53.6 °F 53.6 °F 100% 30.18 in 6.2 mi South 10.4 mph - N/A   Mostly Cloudy
5:00 AM 53.6 °F 53.6 °F 100% 30.18 in 6.2 mi SSW 8.1 mph - N/A   Mostly Cloudy
5:30 AM 53.6 °F 53.6 °F 100% 30.18 in 6.2 mi SSW 8.1 mph - N/A   Mostly Cloudy
6:00 AM 53.6 °F 53.6 °F 100% 30.18 in 6.2 mi South 10.4 mph - N/A   Mostly Cloudy
6:30 AM 53.6 °F 53.6 °F 100% 30.18 in 6.2 mi South 9.2 mph 20.7 mph N/A   Mostly Cloudy
7:00 AM 53.6 °F 53.6 °F 100% 30.18 in 6.2 mi South 11.5 mph - N/A   Mostly Cloudy
7:30 AM 53.6 °F 53.6 °F 100% 30.18 in 6.2 mi SSW 11.5 mph - N/A   Mostly Cloudy
8:00 AM 53.6 °F 53.6 °F 100% 30.18 in 6.2 mi SSW 11.5 mph 23.0 mph N/A   Mostly Cloudy
9:00 AM 53.6 °F 53.6 °F 100% 30.18 in 6.2 mi SSW 12.7 mph - N/A   Mostly Cloudy
9:30 AM 53.6 °F 51.8 °F 94% 30.18 in 6.2 mi South 13.8 mph - N/A   Mostly Cloudy
10:00 AM 53.6 °F 50.0 °F 88% 30.18 in 6.2 mi South 10.4 mph 21.9 mph N/A   Mostly Cloudy
10:30 AM 53.6 °F 50.0 °F 88% 30.18 in 6.2 mi South 15.0 mph - N/A   Light Drizzle
11:00 AM 53.6 °F 51.8 °F 94% 30.21 in 5.0 mi South 12.7 mph - N/A   Light Drizzle
11:30 AM 53.6 °F 51.8 °F 94% 30.21 in 6.2 mi SSW 12.7 mph - N/A   Mostly Cloudy
12:00 PM 53.6 °F 51.8 °F 94% 30.21 in 6.2 mi South 13.8 mph - N/A   Light Drizzle
12:30 PM 55.4 °F 51.8 °F 88% 30.21 in 6.2 mi South 16.1 mph 27.6 mph N/A   Light Drizzle
1:00 PM 53.6 °F 51.8 °F 94% 30.18 in 4.3 mi SSW 13.8 mph - N/A   Light Drizzle
1:30 PM 53.6 °F 51.8 °F 94% 30.18 in 4.3 mi South 16.1 mph 29.9 mph N/A   Light Drizzle
2:00 PM 55.4 °F 53.6 °F 94% 30.18 in 3.7 mi SSW 13.8 mph - N/A   Light Drizzle
2:30 PM 55.4 °F 53.6 °F 94% 30.15 in 3.1 mi SSW 13.8 mph - N/A   Light Drizzle
3:00 PM 55.4 °F 55.4 °F 100% 30.15 in 6.2 mi South 10.4 mph - N/A   Mostly Cloudy
3:30 PM 57.2 °F 55.4 °F 94% 30.15 in 6.2 mi South 10.4 mph - N/A   Mostly Cloudy
4:00 PM 57.2 °F 53.6 °F 88% 30.15 in 6.2 mi South 13.8 mph - N/A   Mostly Cloudy
4:30 PM 57.2 °F 53.6 °F 88% 30.15 in 6.2 mi South 13.8 mph - N/A   Mostly Cloudy
5:00 PM 57.2 °F 51.8 °F 82% 30.15 in 6.2 mi South 12.7 mph - N/A   Mostly Cloudy
5:30 PM 57.2 °F 51.8 °F 82% 30.15 in 6.2 mi SSW 11.5 mph - N/A   Mostly Cloudy
6:00 PM 57.2 °F 51.8 °F 82% 30.18 in 6.2 mi SSW 12.7 mph - N/A   Mostly Cloudy
6:30 PM 55.4 °F 51.8 °F 88% 30.18 in 6.2 mi South 13.8 mph - N/A   Mostly Cloudy
7:00 PM 55.4 °F 51.8 °F 88% 30.15 in 6.2 mi South 13.8 mph - N/A   Mostly Cloudy
7:30 PM 55.4 °F 51.8 °F 88% 30.15 in 6.2 mi South 12.7 mph - N/A   Mostly Cloudy
8:00 PM 55.4 °F 51.8 °F 88% 30.15 in 6.2 mi South 12.7 mph - N/A   Mostly Cloudy
8:30 PM 55.4 °F 51.8 °F 88% 30.15 in 6.2 mi South 12.7 mph 24.2 mph N/A   Mostly Cloudy
9:00 PM 55.4 °F 51.8 °F 88% 30.15 in 6.2 mi South 12.7 mph - N/A   Mostly Cloudy
9:30 PM 55.4 °F 51.8 °F 88% 30.15 in 6.2 mi South 13.8 mph - N/A   Mostly Cloudy
10:00 PM 55.4 °F 51.8 °F 88% 30.15 in 6.2 mi South 12.7 mph 25.3 mph N/A   Mostly Cloudy
10:30 PM 55.4 °F 51.8 °F 88% 30.15 in 6.2 mi South 15.0 mph - N/A   Mostly Cloudy
11:00 PM 55.4 °F 50.0 °F 82% 30.18 in 6.2 mi South 13.8 mph - N/A   Mostly Cloudy
11:30 PM 55.4 °F 50.0 °F 82% 30.15 in 6.2 mi South 12.7 mph 25.3 mph N/A   Mostly Cloudy